Bryce Canyon, UT

12:41 AM MDT on April 27, 2017 (GMT -0600)
Bryce Canyon

Weather History for KBCE - October, 2012

Change the Weather History Date:

Friday, October 12, 2012

  Actual Average Record
Temperature  
Mean Temperature 40 °F -  
Max Temperature 46 °F 59 °F 75 °F (2015)
Min Temperature 33 °F 28 °F 10 °F (1969)
Degree Days  
Heating Degree Days 26    
Moisture  
Dew Point 37 °F    
Average Humidity 86    
Maximum Humidity 100    
Minimum Humidity 58    
Precipitation  
Precipitation 0.40 in - - ()
Sea Level Pressure  
Sea Level Pressure 30.00 in    
Wind  
Wind Speed 10 mph (SSE)    
Max Wind Speed 20 mph    
Max Gust Speed 26 mph    
Visibility 8 miles    
Events Rain , Snow    
Averages and records for this station are not official NWS values.
T = Trace of Precipitation, MM = Missing Value Source: NWS Daily Summary

Daily Weather History Graph

Daily Weather History Graph

Search for Another Location

Airport or City:

Trip Planner

Search our weather history database for the weather conditions in past years. The results will help you decide how hot, cold, wet, or windy it might be!

Date:

Astronomy

Oct. 12, 2012 Rise Set
Actual Time 7:34 AM MDT 6:54 PM MDT
Civil Twilight 7:08 AM MDT 7:20 PM MDT
Nautical Twilight 6:37 AM MDT 7:51 PM MDT
Astronomical Twilight 6:07 AM MDT 8:21 PM MDT
Moon 4:24 AM MDT (10/12) 5:04 PM MDT (10/12)
Length of Visible Light 12h 12m
Length of Day
11h 20m
Waning Crescent, 10% of the Moon is Illuminated
Oct 12
Waning Crescent
Oct 15
New
Oct 21
First Quarter
Oct 29
Full
Nov 6
Last Quarter

Hourly Weather History & Observations

Time (MDT) Temp. Windchill Dew Point Humidity Pressure Visibility Wind Dir Wind Speed Gust Speed Precip Events Conditions
12:53 AM 42.1 °F 38.4 °F 37.9 °F 85% 29.88 in 10.0 mi SE 5.8 mph - 0.00 in   Scattered Clouds
1:53 AM 46.0 °F 40.6 °F 39.0 °F 76% 29.88 in 10.0 mi SE 11.5 mph 17.3 mph N/A   Overcast
2:41 AM 44.6 °F 40.2 °F 41.0 °F 87% 30.09 in 10.0 mi SE 8.1 mph - 0.01 in Rain Light Rain
2:53 AM 44.1 °F 37.4 °F 41.0 °F 89% 29.87 in 10.0 mi SE 13.8 mph 19.6 mph 0.02 in Rain Light Rain
3:01 AM 44.6 °F 37.2 °F 39.2 °F 81% 30.08 in 10.0 mi SE 17.3 mph 21.9 mph 0.00 in Rain Light Rain
3:31 AM 44.6 °F 37.2 °F 42.8 °F 93% 30.07 in 8.0 mi ESE 17.3 mph 24.2 mph 0.03 in Rain Light Rain
3:42 AM 44.6 °F 38.1 °F 42.8 °F 93% 30.06 in 5.0 mi ESE 13.8 mph - 0.06 in Rain Rain
3:53 AM 43.0 °F 35.1 °F 42.1 °F 97% 29.84 in 6.0 mi SE 17.3 mph 23.0 mph 0.08 in Rain Rain
4:10 AM 42.8 °F 35.8 °F 41.0 °F 93% 30.05 in 8.0 mi SE 13.8 mph - 0.02 in Rain Light Rain
4:28 AM 42.8 °F 36.2 °F 42.8 °F 100% 30.07 in 4.0 mi SE 12.7 mph 21.9 mph 0.06 in Rain Heavy Rain
4:40 AM 42.8 °F 34.8 °F 42.8 °F 100% 30.06 in 4.0 mi SE 17.3 mph 24.2 mph 0.11 in Rain Heavy Rain
4:47 AM 42.8 °F 36.6 °F 42.8 °F 100% 30.06 in 3.0 mi SE 11.5 mph 24.2 mph 0.15 in Rain Heavy Rain
4:53 AM 43.0 °F 37.7 °F 41.0 °F 93% 29.81 in 4.0 mi SE 9.2 mph - 0.16 in Rain Rain
5:26 AM 42.8 °F 37.0 °F 41.0 °F 93% 30.04 in 10.0 mi ESE 10.4 mph - 0.00 in   Overcast
5:33 AM 42.8 °F 37.5 °F 41.0 °F 93% 30.04 in 10.0 mi ESE 9.2 mph - 0.00 in   Overcast
5:53 AM 42.1 °F 37.7 °F 41.0 °F 96% 29.82 in 10.0 mi SE 6.9 mph - 0.00 in   Overcast
6:22 AM 42.8 °F 38.6 °F 39.2 °F 87% 30.04 in 10.0 mi SE 6.9 mph - N/A   Overcast
6:53 AM 42.1 °F 36.1 °F 39.9 °F 92% 29.83 in 9.0 mi ESE 10.4 mph - 0.02 in Rain Light Rain
6:59 AM 42.8 °F 38.0 °F 39.2 °F 87% 30.03 in 10.0 mi ESE 8.1 mph - 0.00 in Rain Light Rain
7:19 AM 42.8 °F 38.0 °F 39.2 °F 87% 30.03 in 3.0 mi ESE 8.1 mph 19.6 mph 0.07 in Rain Heavy Rain
7:22 AM 42.8 °F 37.5 °F 39.2 °F 87% 30.03 in 2.5 mi SE 9.2 mph 19.6 mph 0.08 in Rain Heavy Rain
7:32 AM 41.0 °F 33.1 °F 39.2 °F 93% 30.04 in 3.0 mi SSE 15.0 mph 20.7 mph 0.12 in Rain Heavy Rain
7:37 AM 39.2 °F 30.2 °F 37.4 °F 93% 30.03 in 2.5 mi SSE 17.3 mph - 0.15 in Rain Heavy Rain
8:53 AM 35.1 °F 27.9 °F 33.1 °F 92% 29.89 in 5.0 mi WNW 9.2 mph - 0.10 in Snow Light Snow
9:35 AM 33.8 °F 29.6 °F 32.0 °F 93% 30.08 in 1.8 mi ENE 4.6 mph - 0.03 in Snow Light Snow
9:41 AM 33.8 °F 25.8 °F 32.0 °F 93% 30.08 in 1.5 mi ENE 10.4 mph - 0.04 in Snow Light Snow
9:50 AM 33.8 °F 25.3 °F 32.0 °F 93% 30.06 in 2.0 mi NE 11.5 mph - 0.04 in Snow Light Snow
10:21 AM 33.8 °F 27.0 °F 33.8 °F 100% 30.07 in 7.0 mi NE 8.1 mph - 0.00 in   Overcast
10:40 AM 35.6 °F 28.6 °F 33.8 °F 93% 30.07 in 10.0 mi NNE 9.2 mph - 0.00 in   Mostly Cloudy
11:50 AM 42.8 °F 41.1 °F 35.6 °F 76% 30.05 in 10.0 mi Variable 3.5 mph - N/A   Mostly Cloudy
11:53 AM 42.1 °F 39.2 °F 35.1 °F 76% 29.86 in 10.0 mi South 4.6 mph - N/A   Mostly Cloudy
12:48 PM 39.2 °F 29.6 °F 33.8 °F 81% 30.06 in 10.0 mi SSW 19.6 mph 26.5 mph 0.00 in Rain Light Rain
12:53 PM 37.0 °F 28.5 °F 34.0 °F 89% 29.90 in 7.0 mi SSW 13.8 mph 26.5 mph 0.00 in Snow Light Snow
1:15 PM 37.4 °F 28.9 °F 35.6 °F 93% 30.06 in 10.0 mi West 13.8 mph - 0.00 in   Overcast
1:53 PM 42.1 °F 34.9 °F 33.1 °F 70% 29.84 in 10.0 mi West 13.8 mph - 0.00 in   Mostly Cloudy
2:20 PM 42.8 °F 37.0 °F 32.0 °F 66% 30.04 in 10.0 mi WSW 10.4 mph - N/A   Mostly Cloudy
2:30 PM 42.8 °F 37.5 °F 32.0 °F 66% 30.04 in 10.0 mi SW 9.2 mph - N/A   Mostly Cloudy
2:53 PM 41.0 °F 33.9 °F 36.0 °F 82% 29.84 in 9.0 mi SE 12.7 mph - N/A   Overcast
3:22 PM 44.6 °F 38.1 °F 33.8 °F 66% 30.04 in 10.0 mi SSW 13.8 mph 19.6 mph N/A   Overcast
3:38 PM 46.4 °F 40.7 °F 33.8 °F 62% 30.04 in 10.0 mi South 12.7 mph 21.9 mph N/A   Overcast
3:53 PM 46.0 °F 39.9 °F 32.0 °F 58% 29.83 in 10.0 mi WSW 13.8 mph - N/A   Overcast
4:15 PM 41.0 °F 34.7 °F 33.8 °F 76% 30.05 in 10.0 mi NW 10.4 mph - N/A   Overcast
4:39 PM 41.0 °F 35.8 °F 33.8 °F 76% 30.05 in 10.0 mi West 8.1 mph - N/A   Overcast
4:53 PM 39.9 °F 33.9 °F 34.0 °F 79% 29.87 in 10.0 mi NW 9.2 mph - N/A   Overcast
5:53 PM 37.0 °F 31.6 °F 33.1 °F 86% 29.91 in 10.0 mi NW 6.9 mph - N/A   Overcast
6:53 PM 36.0 °F 32.1 °F 34.0 °F 93% 29.94 in 10.0 mi NW 4.6 mph - 0.00 in Rain Light Rain
7:25 PM 37.4 °F - 33.8 °F 87% 30.11 in 10.0 mi Calm Calm - 0.01 in Rain Light Rain
7:32 PM 37.4 °F 32.8 °F 33.8 °F 87% 30.11 in 10.0 mi Variable 5.8 mph - 0.01 in   Overcast
7:53 PM 37.0 °F 31.0 °F 34.0 °F 89% 29.96 in 10.0 mi West 8.1 mph - 0.01 in Rain Light Rain
8:04 PM 37.4 °F 30.8 °F 33.8 °F 87% 30.12 in 10.0 mi WSW 9.2 mph - 0.00 in Rain Light Rain
8:53 PM 36.0 °F 33.3 °F 33.1 °F 89% 30.00 in 10.0 mi WSW 3.5 mph - 0.00 in   Overcast
9:53 PM 36.0 °F 29.6 °F 33.1 °F 89% 30.02 in 10.0 mi WSW 8.1 mph - N/A   Overcast
10:53 PM 36.0 °F 29.6 °F 33.1 °F 89% 30.01 in 10.0 mi WSW 8.1 mph - 0.01 in Rain Light Rain
11:53 PM 37.0 °F 31.0 °F 33.1 °F 86% 29.98 in 10.0 mi SSW 8.1 mph - 0.00 in Rain Light Rain